Location: Dos Palmas
(32.4468°N, 116.8732°W)
Time: 12:55:55
(UTC+00:00)

Delta 2 Rocket - Pass Details

Date: 20 June 2021
Orbit: 416 x 801 km, 35.6° (Epoch: 31 July)

Event Time Altitude Azimuth Distance (km) Brightness Sun altitude
Exits shadow 10:12:35 59° 82° (E) 625 3.7 -24.5°
Drops below altitude 10° 10:15:45 10° 74° (ENE) 1,706 6.5 -24.1°
Sets 10:17:50 0° 74° (ENE) 2,535 7.5 -23.8°
